Content
SEND FEEDBACK

Daily
Averages
Monthly
Summary
Russia

PENZA, RUSSIA


Home > Europe > Russia
Elevation: 571 feet     Latitude: 53 08N     Longitude: 045 01E

WEATHER
 
SELECT A DAY
Number of Records: 134,233;   Date Range: 3/24/97 - 10/20/14
 
SHARE

PRINT THIS DATA

[ ← Previous Day ]
WEATHER ALMANAC - JANUARY 31, 2013
[ Next Day → ]
[ °C ]   °F
Weather ElementAverageHighLow
Temperature17.6 °F23 °F (5:00 pm)8.6 °F (8:00 am)
Dewpoint6.2 °F12.2 °F (8:00 pm)-2.2 °F (8:00 am)
Humidity58.1 %68 % (1:00 am)32 % (1:00 pm)
Barometer30.01 in30.18 in (1:00 am)29.88 in (10:00 pm)
Wind Speed4.5 mph11.2 mph (6:00 pm)
Weather ElementAverage
Visibility6 mi
Wind DirectionENE (82.5 °)

Weather ElementTotal
Precipitation---
Heating Degree Days49.2 (Base 65)
Averaged from 36 records on January 31, 2013
WEATHER CONDITIONS BREAKOUT
WIND DIRECTION BREAKOUT
WEATHER BY HOUR - JANUARY 31, 2013
[ °C ]   °F
Local TimeTemperatureDewpointHumidityBarometerVisibilityWind DirectionWind SpeedGust SpeedPrecipitationEventsConditions
1:00 AM17.0 °F4.0 °F41 %30.15 in6.0 miEast (100°)2.2 mphMostly Cloudy
1:00 AM15.8 °F6.8 °F68 %30.18 inCalmClear
4:00 AM16.0 °F6.0 °F51 %30.14 in6.0 miENE (70°)2.2 mphOvercast
4:00 AM15.8 °F6.8 °F68 %30.15 inESE (120°)6.7 mphClear
5:00 AM15.8 °F6.8 °F68 %30.12 inEast (100°)4.5 mphClear
5:30 AM15.8 °F6.8 °F68 %30.12 inEast (90°)6.7 mphClear
6:00 AM12.2 °F-0.4 °F57 %30.12 inEast (90°)6.7 mphClear
6:30 AM12.2 °F-0.4 °F57 %30.12 inCalmClear
7:00 AM12.2 °F-0.4 °F57 %30.09 inCalmClear
7:00 AM13.0 °F3.0 °F52 %30.10 in6.0 miNE (50°)2.2 mphMostly Cloudy
7:30 AM12.2 °F-0.4 °F57 %30.09 inCalmClear
8:00 AM8.6 °F-2.2 °F62 %30.09 inCalmClear
9:00 AM10.4 °F-2.2 °F57 %30.06 inCalmClear
10:00 AM14.0 °F4.0 °F50 %30.06 in6.0 miENE (60°)2.2 mphClear
10:00 AM12.2 °F-0.4 °F57 %30.06 inEast (90°)4.5 mphClear
11:00 AM15.8 °F1.4 °F53 %30.04 inCalmClear
12:00 PM17.6 °F5.0 °F58 %30.01 inESE (110°)4.5 mphClear
1:00 PM19.4 °F6.8 °F58 %30.01 inESE (120°)8.9 mphClear
1:00 PM20.0 °F3.0 °F32 %30.00 in6.0 miSE (130°)6.7 mphMostly Cloudy
2:00 PM21.2 °F8.6 °F58 %29.98 inESE (120°)6.7 mphClear
3:00 PM21.2 °F8.6 °F58 %29.98 inSE (130°)6.7 mphClear
4:00 PM22.0 °F5.0 °F33 %29.95 in6.0 miEast (100°)2.2 mphMostly Cloudy
4:00 PM21.2 °F8.6 °F58 %29.95 inESE (110°)6.7 mphClear
5:00 PM23.0 °F10.4 °F59 %29.95 inESE (120°)6.7 mphClear
6:00 PM21.2 °F10.4 °F63 %29.92 inESE (110°)11.2 mphClear
6:30 PM21.2 °F10.4 °F63 %29.92 inESE (120°)11.2 mphClear
7:00 PM21.2 °F10.4 °F63 %29.92 inESE (120°)6.7 mphClear
7:00 PM22.0 °F8.0 °F41 %29.91 in6.0 miEast (100°)4.5 mphMostly Cloudy
7:30 PM21.2 °F10.4 °F63 %29.92 inESE (110°)4.5 mphClear
8:00 PM21.2 °F12.2 °F68 %29.92 inCalmClear
8:30 PM21.2 °F12.2 °F68 %29.92 inESE (110°)4.5 mphClear
9:00 PM21.2 °F12.2 °F68 %29.92 inESE (120°)6.7 mphClear
9:30 PM21.2 °F12.2 °F68 %29.92 inESE (110°)8.9 mphClear
10:00 PM19.0 °F9.0 °F53 %29.88 in6.0 miESE (120°)2.2 mphMostly Cloudy
10:00 PM19.4 °F10.4 °F68 %29.92 inSE (130°)6.7 mphClear
11:00 PM19.4 °F10.4 °F68 %29.89 inESE (110°)6.7 mphClear
Hourly data recorded from UWPP, located miles away from Penza, Russia







STORIES FROM OUR PARTNERS